GW0996 Weather Reports


time (UTC)temp
F
wind
direction
speed
knots
gust
knots
rain 1hr
in
rain 24hr
in
rain mn
in
humidity
%
barometer
mb
20260505025252 54 52 0.0 0.0 0.09 0.15 0.15 91 1014.0
20260505024752 54 49 0.0 0.9 0.09 0.15 0.15 91 1014.2
20260505024252 55 48 0.0 1.7 0.09 0.14 0.14 90 1014.3
20260505023253 55 99 0.0 0.0 0.08 0.12 0.12 91 1014.1
20260505022253 55 102 0.0 0.0 0.07 0.10 0.10 90 1014.2
20260505021753 55 102 0.0 0.0 0.07 0.09 0.09 89 1014.3
20260505021253 55 101 0.0 0.0 0.08 0.09 0.09 89 1014.5
20260505020244 55 113 0.0 2.6 0.06 0.07 0.07 87 1014.7
20260505015742 55 308 2.6 2.6 0.06 0.06 0.06 87 1014.6
20260505015242 55 306 0.0 1.7 0.06 0.06 0.06 87 1014.6
20260505014229 55 251 0.0 0.9 0.05 0.05 0.05 86 1014.7
20260505013728 55 255 0.0 0.9 0.05 0.05 0.05 85 1014.8
20260505013228 55 154 0.0 1.7 0.04 0.04 0.04 84 1014.8
20260505012728 55 150 0.0 1.7 0.03 0.03 0.03 84 1014.9
20260505012221 56 284 0.0 0.9 0.03 0.03 0.03 84 1015.1
20260505011704 56 156 0.0 0.9 0.02 0.02 0.02 84 1014.9
20260505011205 56 157 0.0 0.0 0.01 0.01 0.01 83 1015.0
20260505010700 57 157 0.0 1.7 0.01 0.01 0.01 80 1015.0
20260505010153 57 157 0.0 1.7 0.01 0.01 0.01 76 1015.0
20260505005651 58 159 0.0 0.9 0.00 0.00 0.00 75 1015.1
20260505005152 58 161 0.0 0.0 0.00 0.00 0.00 74 1015.1
20260505004651 57 159 0.0 0.9 0.00 0.00 0.00 73 1015.3
20260505003652 57 288 0.0 0.0 0.00 0.00 0.00 74 1015.2
20260505002640 56 288 0.0 0.0 0.00 0.00 0.00 74 1015.5
20260505002141 56 289 0.0 0.0 0.00 0.00 0.00 73 1015.6
20260505001641 56 289 0.0 0.0 0.00 0.00 0.00 74 1016.0
20260505000640 56 289 0.0 0.0 0.00 0.00 0.00 75 1015.7
20260505000140 56 289 0.0 0.0 0.00 0.00 0.00 74 1015.7
20260504235640 56 289 0.0 0.0 0.00 0.00 0.00 76 1015.7
20260504234629 57 289 0.0 0.0 0.00 0.00 0.00 74 1015.8
20260504234128 57 289 0.0 0.0 0.00 0.00 0.00 74 1015.8
20260504233615 57 289 0.0 0.0 0.00 0.00 0.00 73 1016.0
20260504233119 56 289 0.0 0.0 0.00 0.00 0.00 72 1016.0
20260504232555 56 289 0.0 0.0 0.00 0.00 0.00 72 1016.1
20260504232051 56 289 0.0 0.0 0.00 0.00 0.00 73 1016.1
20260504231553 56 289 0.0 0.0 0.00 0.00 0.00 73 1016.2
20260504231042 56 289 0.0 0.0 0.00 0.00 0.00 73 1016.3
20260504230540 57 289 0.0 0.0 0.00 0.00 0.00 72 1016.6
20260504230040 57 289 0.0 0.0 0.00 0.00 0.00 71 1016.4
20260504225540 56 289 0.0 0.0 0.00 0.00 0.00 72 1016.6
20260504224539 56 289 0.0 0.0 0.00 0.00 0.00 71 1016.6
20260504224040 56 288 0.0 0.0 0.00 0.00 0.00 72 1016.6
20260504223527 56 289 0.0 0.0 0.00 0.00 0.00 72 1016.6
20260504223028 56 289 0.0 0.0 0.00 0.00 0.00 71 1016.6
20260504222504 57 289 0.0 0.0 0.00 0.00 0.00 71 1016.7
20260504222004 57 289 0.0 0.0 0.00 0.00 0.00 71 1016.7
20260504221452 57 290 0.0 0.9 0.00 0.00 0.00 70 1016.6
20260504220953 57 290 0.0 1.7 0.00 0.00 0.00 68 1016.7
20260504220453 57 289 0.9 1.7 0.00 0.00 0.00 69 1016.7
20260504215952 57 162 0.0 0.0 0.00 0.00 0.00 70 1016.9
20260504215453 57 162 0.0 0.9 0.00 0.00 0.00 69 1017.0
20260504214453 58 171 0.0 0.0 0.00 0.00 0.00 67 1017.0
20260504213952 59 171 0.0 0.0 0.00 0.00 0.00 65 1016.7
20260504213455 59 174 0.0 0.9 0.00 0.00 0.00 64 1016.8
20260504212955 60 174 0.0 0.9 0.00 0.00 0.00 63 1016.9
20260504212453 60 215 0.0 0.9 0.00 0.00 0.00 62 1016.8
20260504211953 61 133 0.0 1.7 0.00 0.00 0.00 60 1016.9
20260504211452 61 112 0.0 1.7 0.00 0.00 0.00 60 1016.8
20260504210953 61 120 0.0 3.5 0.00 0.00 0.00 60 1016.9
20260504205957 60 296 0.9 1.7 0.00 0.00 0.00 59 1017.0
20260504205441 61 234 0.0 0.9 0.00 0.00 0.00 59 1017.1
20260504204942 61 222 0.0 0.9 0.00 0.00 0.00 58 1017.2
20260504203940 61 289 0.0 0.0 0.00 0.00 0.00 58 1017.0
20260504202939 61 287 0.0 1.7 0.00 0.00 0.00 57 1016.7
20260504202440 61 289 0.0 1.7 0.00 0.00 0.00 57 1016.9
20260504201943 61 338 0.0 1.7 0.00 0.00 0.00 56 1016.7
20260504201442 61 154 0.0 0.9 0.00 0.00 0.00 56 1016.8
20260504200940 61 183 0.0 0.9 0.00 0.00 0.00 55 1017.0
20260504200440 61 152 0.0 0.9 0.00 0.00 0.00 55 1016.9
20260504195941 61 14 0.0 1.7 0.00 0.00 0.00 55 1017.0
20260504195441 62 336 0.0 1.7 0.00 0.00 0.00 54 1016.9
20260504194942 62 84 0.0 0.9 0.00 0.00 0.00 53 1016.9
20260504194444 62 36 0.0 1.7 0.00 0.00 0.00 53 1017.1
20260504193428 62 127 0.0 0.9 0.00 0.00 0.00 51 1016.6
20260504192928 63 91 0.0 0.0 0.00 0.00 0.00 51 1016.6
20260504192427 63 99 0.0 1.7 0.00 0.00 0.00 51 1016.5
20260504191429 64 305 0.0 1.7 0.00 0.00 0.00 49 1016.5
20260504185929 64 160 0.0 1.7 0.00 0.00 0.00 45 1016.2
20260504185431 65 149 0.0 2.6 0.00 0.00 0.00 45 1016.0
20260504184905 65 145 2.6 2.6 0.00 0.00 0.00 45 1016.4
20260504184404 65 182 0.0 1.7 0.00 0.00 0.00 45 1016.4
20260504183904 65 149 0.0 1.7 0.00 0.00 0.00 44 1016.2
20260504183354 65 161 0.9 3.5 0.00 0.00 0.00 43 1016.2
20260504182853 65 167 0.0 3.5 0.00 0.00 0.00 43 1016.4
20260504182354 65 137 0.9 1.7 0.00 0.00 0.00 42 1016.4
20260504181852 65 141 0.9 2.6 0.00 0.00 0.00 42 1016.5
20260504180853 65 238 0.0 0.9 0.00 0.00 0.00 42 1016.2
20260504180356 65 153 0.0 0.9 0.00 0.00 0.00 41 1016.0
20260504175853 65 162 0.0 0.9 0.00 0.00 0.00 42 1016.5
20260504175355 66 206 0.9 0.9 0.00 0.00 0.00 41 1016.3
20260504174853 66 129 0.0 1.7 0.00 0.00 0.00 42 1016.0
20260504174354 66 129 0.0 1.7 0.00 0.00 0.00 40 1016.0
20260504173858 66 176 0.0 1.7 0.00 0.00 0.00 39 1016.1
20260504173355 67 152 0.0 0.9 0.00 0.00 0.00 40 1015.9
20260504172851 67 152 0.0 0.9 0.00 0.00 0.00 38 1015.8
20260504172353 68 220 0.0 1.7 0.00 0.00 0.00 39 1015.9
20260504171851 68 150 0.0 1.7 0.00 0.00 0.00 42 1015.9
20260504171353 69 212 0.0 0.9 0.00 0.00 0.00 39 1015.9
20260504170354 69 227 0.0 1.7 0.00 0.00 0.00 40 1015.9
20260504160353 72 186 0.0 0.9 0.00 0.00 0.00 41 1015.8
20260504150853 73 197 0.0 0.9 0.00 0.00 0.00 39 1015.9
20260504150354 73 196 0.0 0.9 0.00 0.00 0.00 39 1015.9
20260504140854 74 203 0.0 0.9 0.00 0.00 0.00 37 1016.0
20260504140406 74 180 0.0 0.9 0.00 0.00 0.00 37 1016.1
20260504110228 75 109 0.0 1.7 0.00 0.00 0.00 39 1017.4
20260504100153 74 114 0.0 0.9 0.00 0.00 0.00 36 1018.3
20260504081643 65 332 0.0 0.9 0.00 0.00 0.00 59 1018.6
20260504081141 64 345 0.0 0.9 0.00 0.00 0.00 63 1018.6
20260504080641 64 345 0.0 0.9 0.00 0.00 0.00 62 1018.6
20260504080139 63 338 0.0 0.9 0.00 0.00 0.00 63 1018.6
20260504060116 49 328 0.0 0.0 0.00 0.00 0.00 85 1018.7
20260504045554 44 328 0.0 0.0 0.00 0.00 0.00 92 1018.7
20260504045054 43 328 0.0 0.0 0.00 0.00 0.00 92 1018.6
20260504044553 43 328 0.0 0.0 0.00 0.00 0.00 92 1018.6
20260504044054 43 329 0.0 0.0 0.00 0.00 0.00 92 1018.5
20260504043553 42 328 0.0 0.0 0.00 0.00 0.00 92 1018.2
20260504042553 42 328 0.0 0.0 0.00 0.00 0.00 92 1018.4
20260504041552 43 328 0.0 0.0 0.00 0.00 0.00 92 1018.0
20260504041053 43 328 0.0 0.0 0.00 0.00 0.00 92 1018.3
20260504040552 43 328 0.0 0.0 0.00 0.00 0.00 92 1018.1
20260504040054 43 328 0.0 0.0 0.00 0.00 0.00 91 1018.2
20260504035553 43 329 0.0 0.0 0.00 0.00 0.00 91 1018.1
20260504034054 43 328 0.0 0.0 0.00 0.00 0.00 91 1018.1
20260504033540 43 328 0.0 0.0 0.00 0.00 0.00 91 1018.1
20260504033041 43 328 0.0 0.0 0.00 0.00 0.00 91 1018.0
20260504032540 43 328 0.0 0.0 0.00 0.00 0.00 90 1018.0
20260504032040 43 328 0.0 0.0 0.00 0.00 0.00 90 1018.1
20260504031539 43 328 0.0 0.0 0.00 0.00 0.00 90 1018.0
20260504030540 44 327 0.0 1.7 0.00 0.00 0.00 89 1018.0
20260504030040 44 330 0.0 1.7 0.00 0.00 0.00 89 1017.9